DAL1336 KATL-KORF

Flight info

Callsign DAL1336
Flight time 1h 18m
Altitude 35000
Route PHIIL3 HRTWL Q54 NUTZE KOHLS1
Aircraft B739/M-SDE2E3FGHIRWXY/LB1

Departure

Time 2026-05-04 00:14
Airport Hartsfield Jackson Atlanta International Airport (KATL)

Arrival

Time 2026-05-04 01:33
Airport Norfolk International Airport (KORF)
Time Latitude Longitude Altitude Speed Heading
2026-05-03 23:48 33.64043 -84.43648 1034 ft 0 kts 90°
2026-05-04 00:01 33.64043 -84.43656 1034 ft 2 kts 90°
2026-05-04 00:02 33.64043 -84.43675 1034 ft 2 kts 90°
2026-05-04 00:02 33.64043 -84.43694 1034 ft 2 kts 90°
2026-05-04 00:02 33.64042 -84.43712 1034 ft 2 kts 62°
2026-05-04 00:02 33.64032 -84.43722 1034 ft 2 kts 12°
2026-05-04 00:03 33.64017 -84.43723 1034 ft 2 kts 360°
2026-05-04 00:03 33.64002 -84.43723 1034 ft 0 kts 360°
2026-05-04 00:05 33.64003 -84.43723 1034 ft 2 kts 360°
2026-05-04 00:05 33.64052 -84.43723 1034 ft 9 kts 360°
2026-05-04 00:06 33.64145 -84.43723 1034 ft 18 kts 360°
2026-05-04 00:06 33.64277 -84.43722 1034 ft 22 kts 359°
2026-05-04 00:06 33.64407 -84.43722 1034 ft 13 kts 360°
2026-05-04 00:06 33.64462 -84.43656 1034 ft 14 kts 92°
2026-05-04 00:07 33.64461 -84.43511 1034 ft 20 kts 90°
2026-05-04 00:07 33.64462 -84.43392 1034 ft 23 kts 90°
2026-05-04 00:07 33.64462 -84.43190 1034 ft 25 kts 90°
2026-05-04 00:07 33.64462 -84.43001 1034 ft 20 kts 90°
2026-05-04 00:08 33.64462 -84.42864 1034 ft 13 kts 90°
2026-05-04 00:08 33.64463 -84.42785 1034 ft 6 kts 85°
2026-05-04 00:08 33.64468 -84.42726 1034 ft 12 kts 84°
2026-05-04 00:08 33.64472 -84.42576 1034 ft 20 kts 90°
2026-05-04 00:09 33.64471 -84.42426 1034 ft 15 kts 90°
2026-05-04 00:09 33.64470 -84.42324 1034 ft 10 kts 90°
2026-05-04 00:09 33.64474 -84.42258 1034 ft 7 kts 73°
2026-05-04 00:09 33.64495 -84.42211 1034 ft 4 kts 59°
2026-05-04 00:10 33.64507 -84.42188 1034 ft 5 kts 59°
2026-05-04 00:10 33.64537 -84.42126 1034 ft 12 kts 67°
2026-05-04 00:10 33.64545 -84.41998 1034 ft 19 kts 90°
2026-05-04 00:10 33.64544 -84.41819 1034 ft 24 kts 90°
2026-05-04 00:11 33.64545 -84.41621 1034 ft 22 kts 89°
2026-05-04 00:11 33.64545 -84.41438 1034 ft 23 kts 89°
2026-05-04 00:11 33.64545 -84.41233 1034 ft 26 kts 90°
2026-05-04 00:11 33.64545 -84.41008 1034 ft 29 kts 90°
2026-05-04 00:12 33.64555 -84.40804 1034 ft 18 kts 65°
2026-05-04 00:12 33.64570 -84.40647 1034 ft 15 kts 91°
2026-05-04 00:12 33.64589 -84.40582 1034 ft 5 kts 41°
2026-05-04 00:12 33.64633 -84.40568 1034 ft 9 kts 360°
2026-05-04 00:13 33.64682 -84.40586 1034 ft 5 kts 298°
2026-05-04 00:13 33.64683 -84.40627 1034 ft 0 kts 270°
2026-05-04 00:13 33.64682 -84.40715 1034 ft 39 kts 269°
2026-05-04 00:14 33.64681 -84.41317 1034 ft 105 kts 270°
2026-05-04 00:14 33.64681 -84.42441 1048 ft 158 kts 270°
2026-05-04 00:14 33.64673 -84.43725 1807 ft 148 kts 271°
2026-05-04 00:14 33.64669 -84.44993 2452 ft 157 kts 272°
2026-05-04 00:15 33.64777 -84.46341 2994 ft 167 kts 281°
2026-05-04 00:15 33.65127 -84.47674 3615 ft 170 kts 292°
2026-05-04 00:15 33.65637 -84.48979 4222 ft 175 kts 297°
2026-05-04 00:15 33.66221 -84.50308 4753 ft 187 kts 298°
2026-05-04 00:16 33.66854 -84.51724 5292 ft 199 kts 297°
2026-05-04 00:16 33.67507 -84.53250 5883 ft 211 kts 296°
2026-05-04 00:16 33.68144 -84.54918 6388 ft 232 kts 294°
2026-05-04 00:16 33.68858 -84.56788 6731 ft 256 kts 297°
2026-05-04 00:17 33.69925 -84.58569 7231 ft 271 kts 314°
2026-05-04 00:17 33.71488 -84.59818 7805 ft 272 kts 338°
2026-05-04 00:17 33.73352 -84.60173 8542 ft 281 kts 359°
2026-05-04 00:17 33.75260 -84.59651 8903 ft 284 kts 22°
2026-05-04 00:18 33.76943 -84.58422 9710 ft 278 kts 31°
2026-05-04 00:18 33.78494 -84.57229 11176 ft 253 kts 28°
2026-05-04 00:18 33.79809 -84.55820 12067 ft 261 kts 50°
2026-05-04 00:18 33.80596 -84.53768 12533 ft 282 kts 73°
2026-05-04 00:19 33.80880 -84.51348 12955 ft 302 kts 82°
2026-05-04 00:19 33.81076 -84.48758 13335 ft 321 kts 84°
2026-05-04 00:19 33.81197 -84.45984 13667 ft 342 kts 86°
2026-05-04 00:19 33.81241 -84.43033 13945 ft 363 kts 88°
2026-05-04 00:20 33.81265 -84.39911 14245 ft 382 kts 88°
2026-05-04 00:20 33.81271 -84.36669 14786 ft 392 kts 90°
2026-05-04 00:20 33.81060 -84.33375 15480 ft 398 kts 96°
2026-05-04 00:20 33.80561 -84.30089 16161 ft 403 kts 102°
2026-05-04 00:21 33.79861 -84.26806 16821 ft 407 kts 105°
2026-05-04 00:21 33.79089 -84.23503 17464 ft 412 kts 105°
2026-05-04 00:21 33.78315 -84.20164 18066 ft 417 kts 105°
2026-05-04 00:21 33.77549 -84.16826 18671 ft 421 kts 105°
2026-05-04 00:22 33.76775 -84.13421 19261 ft 425 kts 105°
2026-05-04 00:22 33.75994 -84.09968 19832 ft 429 kts 105°
2026-05-04 00:22 33.75209 -84.06485 20391 ft 433 kts 105°
2026-05-04 00:22 33.74421 -84.02981 20927 ft 437 kts 105°
2026-05-04 00:23 33.73639 -83.99450 21597 ft 435 kts 105°
2026-05-04 00:23 33.72869 -83.95917 22075 ft 440 kts 105°
2026-05-04 00:23 33.72082 -83.92350 22501 ft 444 kts 105°
2026-05-04 00:23 33.71278 -83.88739 22965 ft 447 kts 105°
2026-05-04 00:24 33.70467 -83.85120 23417 ft 450 kts 105°
2026-05-04 00:24 33.69648 -83.81483 23855 ft 453 kts 103°
2026-05-04 00:24 33.68818 -83.77802 24188 ft 459 kts 105°
2026-05-04 00:24 33.67984 -83.74112 24699 ft 458 kts 106°
2026-05-04 00:25 33.67146 -83.70408 25008 ft 463 kts 106°
2026-05-04 00:25 33.66479 -83.66607 25357 ft 467 kts 98°
2026-05-04 00:25 33.66288 -83.62710 25703 ft 470 kts 89°
2026-05-04 00:25 33.66568 -83.58780 26035 ft 473 kts 81°
2026-05-04 00:26 33.67176 -83.54890 26358 ft 476 kts 77°
2026-05-04 00:26 33.67924 -83.51009 26671 ft 478 kts 76°
2026-05-04 00:26 33.68707 -83.47114 26974 ft 481 kts 76°
2026-05-04 00:26 33.69459 -83.43243 27265 ft 484 kts 77°
2026-05-04 00:27 33.70209 -83.39296 27558 ft 486 kts 77°
2026-05-04 00:27 33.70953 -83.35323 27833 ft 488 kts 77°
2026-05-04 00:27 33.71696 -83.31324 28101 ft 491 kts 77°
2026-05-04 00:27 33.72438 -83.27304 28363 ft 493 kts 77°
2026-05-04 00:28 33.73179 -83.23277 28615 ft 495 kts 77°
2026-05-04 00:28 33.73965 -83.19239 28827 ft 498 kts 75°
2026-05-04 00:28 33.75042 -83.15261 28978 ft 502 kts 69°
2026-05-04 00:28 33.76464 -83.11430 29214 ft 503 kts 62°
2026-05-04 00:29 33.78160 -83.07804 29939 ft 491 kts 57°
2026-05-04 00:29 33.79924 -83.04354 30331 ft 489 kts 56°
2026-05-04 00:29 33.81744 -83.00881 30514 ft 491 kts 56°
2026-05-04 00:29 33.83577 -82.97399 30782 ft 492 kts 56°
2026-05-04 00:30 33.85395 -82.93912 31041 ft 492 kts 56°
2026-05-04 00:30 33.87205 -82.90414 31268 ft 493 kts 56°
2026-05-04 00:30 33.89017 -82.86899 31501 ft 494 kts 56°
2026-05-04 00:30 33.90827 -82.83376 31726 ft 494 kts 56°
2026-05-04 00:31 33.92616 -82.79888 31946 ft 495 kts 56°
2026-05-04 00:31 33.94434 -82.76339 32163 ft 495 kts 56°
2026-05-04 00:31 33.96242 -82.72809 32376 ft 496 kts 56°
2026-05-04 00:31 33.98060 -82.69258 32477 ft 499 kts 56°
2026-05-04 00:32 34.01745 -82.62070 32643 ft 507 kts 57°
2026-05-04 00:32 34.03562 -82.58439 32872 ft 506 kts 57°
2026-05-04 00:32 34.05389 -82.54796 33073 ft 507 kts 57°
2026-05-04 00:33 34.07215 -82.51156 33260 ft 507 kts 57°
2026-05-04 00:33 34.10899 -82.43879 33600 ft 509 kts 57°
2026-05-04 00:33 34.12721 -82.40271 33769 ft 510 kts 57°
2026-05-04 00:34 34.14562 -82.36610 33933 ft 510 kts 57°
2026-05-04 00:34 34.16399 -82.32947 34096 ft 511 kts 57°
2026-05-04 00:34 34.18230 -82.29288 34434 ft 507 kts 57°
2026-05-04 00:35 34.21895 -82.21953 34602 ft 512 kts 57°
2026-05-04 00:35 34.25328 -82.14997 34706 ft 518 kts 60°
2026-05-04 00:35 34.26962 -82.11117 34911 ft 517 kts 63°
2026-05-04 00:36 34.28452 -82.07166 34892 ft 516 kts 65°
2026-05-04 00:36 34.31329 -81.99273 34879 ft 509 kts 64°
2026-05-04 00:37 34.34042 -81.91940 34874 ft 508 kts 64°
2026-05-04 00:37 34.36955 -81.84114 34877 ft 510 kts 64°
2026-05-04 00:38 34.39884 -81.76275 34897 ft 510 kts 64°
2026-05-04 00:38 34.42813 -81.68502 34916 ft 512 kts 64°
2026-05-04 00:39 34.45781 -81.60617 34910 ft 514 kts 64°
2026-05-04 00:39 34.48740 -81.52705 34905 ft 514 kts 61°
2026-05-04 00:40 34.51696 -81.44855 34911 ft 510 kts 63°
2026-05-04 00:40 34.54640 -81.37017 34900 ft 510 kts 67°
2026-05-04 00:41 34.57467 -81.29092 34919 ft 512 kts 64°
2026-05-04 00:41 34.60368 -81.21256 34934 ft 512 kts 64°
2026-05-04 00:42 34.63283 -81.13332 34918 ft 517 kts 65°
2026-05-04 00:42 34.66224 -81.05309 34902 ft 519 kts 65°
2026-05-04 00:43 34.69150 -80.97306 34896 ft 518 kts 65°
2026-05-04 00:43 34.72076 -80.89299 34897 ft 517 kts 64°
2026-05-04 00:44 34.75023 -80.81296 34893 ft 519 kts 64°
2026-05-04 00:44 34.77951 -80.73338 34885 ft 516 kts 64°
2026-05-04 00:45 34.80853 -80.65369 34882 ft 516 kts 64°
2026-05-04 00:45 34.83757 -80.57337 34882 ft 520 kts 64°
2026-05-04 00:46 34.86668 -80.49262 34882 ft 520 kts 64°
2026-05-04 00:46 34.89563 -80.41251 34882 ft 520 kts 64°
2026-05-04 00:47 34.92525 -80.33215 34904 ft 521 kts 64°
2026-05-04 00:47 34.95470 -80.25143 34912 ft 521 kts 64°
2026-05-04 00:48 34.98405 -80.17064 34905 ft 523 kts 64°
2026-05-04 00:48 35.01359 -80.08918 34897 ft 525 kts 64°
2026-05-04 00:49 35.04314 -80.00786 34890 ft 523 kts 64°
2026-05-04 00:49 35.07230 -79.92712 34882 ft 522 kts 64°
2026-05-04 00:50 35.09670 -79.85908 34887 ft 523 kts 65°
2026-05-04 00:50 35.12583 -79.77757 34884 ft 524 kts 65°
2026-05-04 00:51 35.15491 -79.69613 34882 ft 527 kts 65°
2026-05-04 00:51 35.18413 -79.61342 34882 ft 530 kts 65°
2026-05-04 00:52 35.21323 -79.53069 34882 ft 530 kts 65°
2026-05-04 00:52 35.24223 -79.44795 34492 ft 528 kts 65°
2026-05-04 00:52 35.25662 -79.40684 34042 ft 520 kts 65°
2026-05-04 00:53 35.27078 -79.36631 33589 ft 513 kts 65°
2026-05-04 00:53 35.28469 -79.32641 33139 ft 507 kts 64°
2026-05-04 00:53 35.29853 -79.28703 32688 ft 500 kts 64°
2026-05-04 00:53 35.31215 -79.24883 32243 ft 493 kts 64°
2026-05-04 00:54 35.32569 -79.21050 31791 ft 488 kts 64°
2026-05-04 00:54 35.33914 -79.17212 31340 ft 489 kts 64°
2026-05-04 00:54 35.35258 -79.13345 30884 ft 501 kts 64°
2026-05-04 00:54 35.36650 -79.09336 30439 ft 517 kts 62°
2026-05-04 00:55 35.38058 -79.05240 29995 ft 519 kts 62°
2026-05-04 00:55 35.39503 -79.01231 29541 ft 509 kts 63°
2026-05-04 00:55 35.40856 -78.97258 29090 ft 501 kts 64°
2026-05-04 00:55 35.42189 -78.93343 28719 ft 496 kts 65°
2026-05-04 00:56 35.43503 -78.89498 28663 ft 496 kts 64°
2026-05-04 00:56 35.46209 -78.81617 28556 ft 499 kts 64°
2026-05-04 00:57 35.48882 -78.73802 28544 ft 500 kts 64°
2026-05-04 00:57 35.51564 -78.65929 28531 ft 503 kts 64°
2026-05-04 00:58 35.54269 -78.57969 28522 ft 503 kts 65°
2026-05-04 00:58 35.56960 -78.50065 28812 ft 501 kts 64°
2026-05-04 00:59 35.59675 -78.42138 28971 ft 505 kts 64°
2026-05-04 00:59 35.62377 -78.34194 29039 ft 503 kts 65°
2026-05-04 01:00 35.65064 -78.26255 29066 ft 503 kts 65°
2026-05-04 01:00 35.67745 -78.18305 29078 ft 504 kts 65°
2026-05-04 01:01 35.70435 -78.10305 29074 ft 505 kts 65°
2026-05-04 01:01 35.73128 -78.02310 29075 ft 506 kts 64°
2026-05-04 01:02 35.75814 -77.94312 29080 ft 506 kts 65°
2026-05-04 01:02 35.78484 -77.86284 29081 ft 506 kts 64°
2026-05-04 01:03 35.81146 -77.78253 29081 ft 506 kts 64°
2026-05-04 01:03 35.82461 -77.74281 28653 ft 507 kts 64°
2026-05-04 01:03 35.83933 -77.70359 28027 ft 499 kts 59°
2026-05-04 01:03 35.85652 -77.66615 27392 ft 492 kts 53°
2026-05-04 01:04 35.87579 -77.63175 26766 ft 484 kts 47°
2026-05-04 01:04 35.89632 -77.59993 26149 ft 477 kts 45°
2026-05-04 01:04 35.91749 -77.56868 25524 ft 473 kts 44°
2026-05-04 01:04 35.93846 -77.53750 24897 ft 470 kts 44°
2026-05-04 01:05 35.95917 -77.50644 24270 ft 466 kts 45°
2026-05-04 01:05 35.97958 -77.47561 23646 ft 463 kts 45°
2026-05-04 01:05 35.99982 -77.44487 23019 ft 459 kts 45°
2026-05-04 01:05 36.01987 -77.41433 22389 ft 452 kts 45°
2026-05-04 01:06 36.03942 -77.38445 21761 ft 441 kts 45°
2026-05-04 01:06 36.05847 -77.35528 21135 ft 431 kts 45°
2026-05-04 01:06 36.07715 -77.32690 20510 ft 422 kts 45°
2026-05-04 01:06 36.09544 -77.29902 19883 ft 413 kts 46°
2026-05-04 01:07 36.11336 -77.27164 19256 ft 405 kts 46°
2026-05-04 01:07 36.13091 -77.24474 18629 ft 398 kts 46°
2026-05-04 01:07 36.14813 -77.21831 18003 ft 391 kts 46°
2026-05-04 01:07 36.16501 -77.19234 17377 ft 384 kts 46°
2026-05-04 01:08 36.18171 -77.16683 16751 ft 378 kts 46°
2026-05-04 01:08 36.19812 -77.14167 16127 ft 372 kts 46°
2026-05-04 01:08 36.21427 -77.11682 15624 ft 368 kts 46°
2026-05-04 01:08 36.23024 -77.09218 15123 ft 366 kts 46°
2026-05-04 01:09 36.24616 -77.06757 14621 ft 364 kts 46°
2026-05-04 01:09 36.26191 -77.04316 14121 ft 362 kts 46°
2026-05-04 01:09 36.27758 -77.01880 13619 ft 360 kts 46°
2026-05-04 01:09 36.29313 -76.99466 13118 ft 358 kts 46°
2026-05-04 01:10 36.30868 -76.97060 12617 ft 356 kts 46°
2026-05-04 01:10 36.32382 -76.94703 12156 ft 353 kts 46°
2026-05-04 01:10 36.33887 -76.92360 12042 ft 341 kts 46°
2026-05-04 01:10 36.35356 -76.90075 12000 ft 336 kts 46°
2026-05-04 01:11 36.36818 -76.87799 12000 ft 338 kts 46°
2026-05-04 01:11 36.38355 -76.85580 12001 ft 338 kts 42°
2026-05-04 01:11 36.39982 -76.83485 12000 ft 338 kts 40°
2026-05-04 01:11 36.41660 -76.81419 12000 ft 337 kts 39°
2026-05-04 01:12 36.43325 -76.79390 11836 ft 332 kts 39°
2026-05-04 01:12 36.44943 -76.77409 11647 ft 322 kts 39°
2026-05-04 01:12 36.46518 -76.75553 11458 ft 309 kts 36°
2026-05-04 01:12 36.48138 -76.73836 11135 ft 304 kts 34°
2026-05-04 01:13 36.49750 -76.72159 10784 ft 299 kts 33°
2026-05-04 01:13 36.51358 -76.70543 10433 ft 296 kts 33°
2026-05-04 01:13 36.52951 -76.68955 10083 ft 292 kts 33°
2026-05-04 01:13 36.54529 -76.67387 9719 ft 290 kts 33°
2026-05-04 01:14 36.56114 -76.65818 9292 ft 289 kts 33°
2026-05-04 01:14 36.57694 -76.64269 8855 ft 289 kts 33°
2026-05-04 01:14 36.59274 -76.62734 8405 ft 288 kts 33°
2026-05-04 01:14 36.60842 -76.61184 7953 ft 286 kts 34°
2026-05-04 01:15 36.62397 -76.59650 7501 ft 283 kts 34°
2026-05-04 01:15 36.63923 -76.58118 7050 ft 280 kts 35°
2026-05-04 01:15 36.65426 -76.56614 6599 ft 275 kts 35°
2026-05-04 01:15 36.66914 -76.55152 6160 ft 269 kts 33°
2026-05-04 01:16 36.68437 -76.53925 6035 ft 252 kts 26°
2026-05-04 01:16 36.69957 -76.52887 5991 ft 245 kts 25°
2026-05-04 01:16 36.71436 -76.51885 5989 ft 239 kts 25°
2026-05-04 01:16 36.72893 -76.50891 5992 ft 238 kts 25°
2026-05-04 01:17 36.74344 -76.49900 5997 ft 239 kts 25°
2026-05-04 01:17 36.75793 -76.48911 6001 ft 241 kts 25°
2026-05-04 01:17 36.77267 -76.47904 6000 ft 241 kts 25°
2026-05-04 01:17 36.78738 -76.46888 6000 ft 241 kts 25°
2026-05-04 01:18 36.80207 -76.45870 6000 ft 241 kts 25°
2026-05-04 01:18 36.81676 -76.44856 6000 ft 241 kts 25°
2026-05-04 01:18 36.83148 -76.43839 6000 ft 241 kts 25°
2026-05-04 01:18 36.84619 -76.42819 6000 ft 241 kts 25°
2026-05-04 01:19 36.86085 -76.41804 6000 ft 241 kts 25°
2026-05-04 01:19 36.87556 -76.40793 6000 ft 241 kts 25°
2026-05-04 01:19 36.89027 -76.39781 6000 ft 241 kts 25°
2026-05-04 01:19 36.90495 -76.38767 5974 ft 242 kts 25°
2026-05-04 01:20 36.91975 -76.37756 5665 ft 248 kts 25°
2026-05-04 01:20 36.93496 -76.36726 5291 ft 248 kts 25°
2026-05-04 01:20 36.95022 -76.35700 4915 ft 249 kts 25°
2026-05-04 01:20 36.96552 -76.34679 4539 ft 249 kts 25°
2026-05-04 01:21 36.98081 -76.33667 4165 ft 249 kts 25°
2026-05-04 01:21 36.99583 -76.32651 4041 ft 240 kts 26°
2026-05-04 01:21 37.01030 -76.31663 3994 ft 235 kts 26°
2026-05-04 01:21 37.02449 -76.30688 3991 ft 231 kts 26°
2026-05-04 01:22 37.03852 -76.29720 3948 ft 231 kts 26°
2026-05-04 01:22 37.05280 -76.28739 3747 ft 236 kts 26°
2026-05-04 01:22 37.06697 -76.27771 3501 ft 234 kts 26°
2026-05-04 01:22 37.08139 -76.26790 3247 ft 232 kts 26°
2026-05-04 01:23 37.09547 -76.25838 3031 ft 227 kts 26°
2026-05-04 01:23 37.10933 -76.24902 2995 ft 225 kts 26°
2026-05-04 01:23 37.12309 -76.23968 2998 ft 225 kts 26°
2026-05-04 01:23 37.13671 -76.23036 3000 ft 227 kts 26°
2026-05-04 01:24 37.15068 -76.22076 3001 ft 231 kts 25°
2026-05-04 01:24 37.16497 -76.21090 3001 ft 232 kts 25°
2026-05-04 01:24 37.17902 -76.20107 3000 ft 231 kts 26°
2026-05-04 01:24 37.19124 -76.18818 2902 ft 240 kts 54°
2026-05-04 01:25 37.19571 -76.16818 2649 ft 241 kts 91°
2026-05-04 01:25 37.19043 -76.14877 2417 ft 234 kts 121°
2026-05-04 01:25 37.18113 -76.13224 2184 ft 229 kts 127°
2026-05-04 01:25 37.17146 -76.11660 2006 ft 222 kts 128°
2026-05-04 01:26 37.16227 -76.10184 1998 ft 207 kts 128°
2026-05-04 01:26 37.15338 -76.08796 2005 ft 202 kts 133°
2026-05-04 01:26 37.14304 -76.07655 1955 ft 197 kts 157°
2026-05-04 01:26 37.12979 -76.07347 1993 ft 194 kts 172°
2026-05-04 01:27 37.11636 -76.07098 2029 ft 195 kts 175°
2026-05-04 01:27 37.10280 -76.07006 2022 ft 194 kts 181°
2026-05-04 01:27 37.08962 -76.07018 2025 ft 189 kts 183°
2026-05-04 01:27 37.07660 -76.07150 2008 ft 186 kts 188°
2026-05-04 01:28 37.06387 -76.07344 1998 ft 183 kts 190°
2026-05-04 01:28 37.05127 -76.07581 1999 ft 182 kts 191°
2026-05-04 01:28 37.03891 -76.07817 2028 ft 177 kts 190°
2026-05-04 01:28 37.02680 -76.08048 2019 ft 174 kts 191°
2026-05-04 01:29 37.01527 -76.08355 1967 ft 164 kts 206°
2026-05-04 01:29 37.00630 -76.09099 1978 ft 148 kts 219°
2026-05-04 01:29 36.99845 -76.09898 1977 ft 143 kts 221°
2026-05-04 01:29 36.99080 -76.10665 2000 ft 141 kts 220°
2026-05-04 01:30 36.98293 -76.11438 1952 ft 144 kts 220°
2026-05-04 01:30 36.97507 -76.12199 1727 ft 146 kts 219°
2026-05-04 01:30 36.96668 -76.12972 1474 ft 151 kts 218°
2026-05-04 01:30 36.95830 -76.13748 1325 ft 152 kts 219°
2026-05-04 01:31 36.94970 -76.14545 1135 ft 152 kts 219°
2026-05-04 01:31 36.94422 -76.15070 993 ft 148 kts 220°
2026-05-04 01:31 36.93657 -76.15878 790 ft 142 kts 222°
2026-05-04 01:31 36.92901 -76.16676 585 ft 144 kts 220°
2026-05-04 01:32 36.92080 -76.17451 476 ft 150 kts 218°
2026-05-04 01:32 36.91248 -76.18251 252 ft 152 kts 218°
2026-05-04 01:32 36.90422 -76.19059 71 ft 148 kts 218°
2026-05-04 01:32 36.89665 -76.19778 34 ft 117 kts 223°
2026-05-04 01:33 36.89191 -76.20248 34 ft 60 kts 219°
2026-05-04 01:33 36.88974 -76.20459 34 ft 19 kts 219°
2026-05-04 01:33 36.88963 -76.20471 34 ft 0 kts 222°
2026-05-04 01:33 36.88953 -76.20483 34 ft 9 kts 231°
2026-05-04 01:34 36.88970 -76.20582 34 ft 11 kts 316°
2026-05-04 01:34 36.89025 -76.20579 34 ft 6 kts 27°
2026-05-04 01:34 36.89050 -76.20563 34 ft 2 kts 27°
2026-05-04 01:34 36.89058 -76.20558 34 ft 4 kts 27°
2026-05-04 01:35 36.89109 -76.20525 34 ft 12 kts 28°
2026-05-04 01:35 36.89199 -76.20455 34 ft 17 kts 36°
2026-05-04 01:35 36.89311 -76.20350 34 ft 23 kts 37°
2026-05-04 01:35 36.89419 -76.20245 34 ft 19 kts 38°
2026-05-04 01:36 36.89503 -76.20162 34 ft 16 kts 38°
2026-05-04 01:36 36.89542 -76.20124 34 ft 6 kts 38°
2026-05-04 01:36 36.89612 -76.20056 34 ft 20 kts 38°
2026-05-04 01:36 36.89698 -76.19978 34 ft 8 kts 10°
2026-05-04 01:37 36.89737 -76.19998 34 ft 4 kts 306°
2026-05-04 01:37 36.89745 -76.20018 34 ft 2 kts 297°
2026-05-04 01:37 36.89756 -76.20045 34 ft 6 kts 293°
2026-05-04 01:37 36.89747 -76.20075 34 ft 5 kts 233°
2026-05-04 01:38 36.89721 -76.20111 34 ft 4 kts 223°
2026-05-04 01:38 36.89712 -76.20122 34 ft 0 kts 225°
2026-05-04 01:38 36.89712 -76.20123 34 ft 0 kts 225°